Canadian, TX

11:41 AM CST on December 05, 2019 (GMT -0600)
Hemphill County

Weather History for KHHF - October, 2019

Change the Weather History Date:

Saturday, October 19, 2019

  Actual Average (WUND) Record (WUND)
Temperature  
Mean Temperature 60 °F -  
Max Temperature 73 °F - - (-1)
Min Temperature 47 °F - - (-1)
Degree Days  
Heating Degree Days 5    
Growing Degree Days 10 (Base 50)    
Moisture  
Dew Point 40 °F    
Average Humidity 53    
Maximum Humidity 87    
Minimum Humidity 19    
Precipitation  
Precipitation 0.00 in - - ()
Sea Level Pressure  
Sea Level Pressure 29.83 in    
Wind  
Wind Speed 8 mph (North)    
Max Wind Speed 22 mph    
Max Gust Speed 32 mph    
Visibility 10 miles    
Events      
Averages and records for this station are not official NWS values.
T = Trace of Precipitation, MM = Missing Value Source: NWS Daily Summary

Daily Weather History Graph

Daily Weather History Graph

Search for Another Location

Airport or City:

Astronomy

Oct. 19, 2019 Rise Set
Actual Time 7:51 AM CDT 7:00 PM CDT
Civil Twilight 7:25 AM CDT 7:26 PM CDT
Nautical Twilight 6:55 AM CDT 7:56 PM CDT
Astronomical Twilight 6:26 AM CDT 8:26 PM CDT
Moon 11:19 PM CDT (10/19) 1:17 PM CDT (10/19)
Length of Visible Light 12h 01m
Length of Day
11h 09m
Waning Gibbous, 69% of the Moon is Illuminated
Oct 19
Waning Gibbous
Oct 21
Last Quarter
Oct 27
New
Nov 4
First Quarter
Nov 12
Full

Hourly Weather History & Observations

Time (CDT) Temp. Dew Point Humidity Pressure Visibility Wind Dir Wind Speed Gust Speed Precip Events Conditions
12:15 AM 64.4 °F 54.7 °F 71% 29.63 in 10.0 mi SW 5.8 mph - N/A   Clear
12:35 AM 61.7 °F 54.1 °F 76% 29.65 in 10.0 mi Calm Calm - N/A   Clear
12:55 AM 60.3 °F 51.1 °F 72% 29.66 in 10.0 mi NNW 10.4 mph - N/A   Clear
1:15 AM 59.4 °F 50.2 °F 72% 29.68 in 10.0 mi North 16.1 mph - N/A   Clear
1:35 AM 58.6 °F 49.1 °F 71% 29.68 in 10.0 mi North 17.3 mph 25.3 mph N/A   Scattered Clouds
1:55 AM 58.5 °F 48.6 °F 70% 29.69 in 10.0 mi North 21.9 mph 26.5 mph N/A   Scattered Clouds
2:15 AM 58.1 °F 48.4 °F 70% 29.71 in 10.0 mi North 21.9 mph 32.2 mph N/A   Overcast
2:35 AM 58.1 °F 47.7 °F 68% 29.72 in 10.0 mi North 18.4 mph 28.8 mph N/A   Mostly Cloudy
2:55 AM 57.7 °F 47.3 °F 68% 29.74 in 10.0 mi North 11.5 mph 21.9 mph N/A   Scattered Clouds
3:15 AM 57.4 °F 47.3 °F 69% 29.75 in 10.0 mi NNE 15.0 mph 20.7 mph N/A   Clear
3:35 AM 56.1 °F 46.8 °F 71% 29.76 in 10.0 mi NNE 5.8 mph - N/A   Clear
3:55 AM 56.3 °F 46.8 °F 70% 29.77 in 10.0 mi North 9.2 mph 16.1 mph N/A   Clear
4:15 AM 55.6 °F 46.9 °F 73% 29.79 in 10.0 mi North 6.9 mph - N/A   Clear
4:35 AM 54.9 °F 47.3 °F 76% 29.81 in 10.0 mi North 10.4 mph - N/A   Clear
4:55 AM 54.9 °F 47.3 °F 76% 29.80 in 10.0 mi North 16.1 mph 20.7 mph N/A   Clear
5:15 AM 53.8 °F 46.8 °F 77% 29.81 in 10.0 mi North 9.2 mph - N/A   Clear
5:35 AM 53.1 °F 47.1 °F 80% 29.82 in 10.0 mi North 6.9 mph - N/A   Clear
5:55 AM 52.2 °F 47.5 °F 84% 29.82 in 10.0 mi North 9.2 mph - N/A   Clear
6:15 AM 51.6 °F 47.3 °F 85% 29.84 in 10.0 mi NNW 9.2 mph - N/A   Clear
6:35 AM 51.8 °F 47.3 °F 85% 29.85 in 10.0 mi NNW 11.5 mph - N/A   Clear
6:55 AM 51.8 °F 47.3 °F 85% 29.85 in 10.0 mi NNW 9.2 mph 17.3 mph N/A   Clear
7:15 AM 50.2 °F 46.4 °F 87% 29.88 in 10.0 mi NW 8.1 mph - N/A   Clear
7:35 AM 50.0 °F 45.7 °F 85% 29.88 in 10.0 mi NNW 6.9 mph - N/A   Clear
7:55 AM 49.8 °F 45.7 °F 86% 29.89 in 10.0 mi NW 5.8 mph - N/A   Clear
8:15 AM 49.6 °F 45.1 °F 84% 29.90 in 10.0 mi Calm Calm - N/A   Clear
8:35 AM 50.2 °F 44.8 °F 82% 29.91 in 10.0 mi WNW 4.6 mph - N/A   Clear
8:55 AM 52.0 °F 44.6 °F 76% 29.92 in 10.0 mi NW 9.2 mph - N/A   Clear
9:15 AM 53.4 °F 43.7 °F 70% 29.92 in 10.0 mi NW 9.2 mph - N/A   Clear
9:35 AM 55.2 °F 43.2 °F 64% 29.92 in 10.0 mi NW 9.2 mph - N/A   Clear
9:55 AM 56.7 °F 42.8 °F 60% 29.93 in 10.0 mi NNW 10.4 mph - N/A   Clear
10:15 AM 58.1 °F 41.9 °F 55% 29.93 in 10.0 mi NNW 11.5 mph 16.1 mph N/A   Clear
10:35 AM 59.9 °F 41.7 °F 51% 29.93 in 10.0 mi North 9.2 mph - N/A   Clear
10:55 AM 61.9 °F 41.0 °F 46% 29.93 in 10.0 mi North 11.5 mph - N/A   Clear
11:15 AM 63.0 °F 40.3 °F 43% 29.93 in 10.0 mi North 11.5 mph 19.6 mph N/A   Clear
11:35 AM 63.9 °F 39.4 °F 41% 29.93 in 10.0 mi NNE 13.8 mph 18.4 mph N/A   Clear
11:55 AM 65.7 °F 39.0 °F 38% 29.93 in 10.0 mi North 11.5 mph 18.4 mph N/A   Clear
12:35 PM 68.2 °F 36.5 °F 31% 29.92 in 10.0 mi North 10.4 mph - N/A   Clear
12:55 PM 69.3 °F 35.6 °F 29% 29.91 in 10.0 mi North 8.1 mph 18.4 mph N/A   Clear
1:15 PM 69.4 °F 35.6 °F 29% 29.91 in 10.0 mi North 10.4 mph - N/A   Clear
1:35 PM 70.9 °F 34.9 °F 27% 29.90 in 10.0 mi NE 6.9 mph - N/A   Clear
1:55 PM 70.3 °F 32.2 °F 24% 29.89 in 10.0 mi NNW 3.5 mph 9.2 mph N/A   Clear
2:15 PM 71.6 °F 30.7 °F 22% 29.88 in 10.0 mi NW 6.9 mph - N/A   Clear
2:35 PM 72.0 °F 30.7 °F 22% 29.87 in 10.0 mi North 3.5 mph - N/A   Clear
2:55 PM 72.1 °F 30.0 °F 21% 29.86 in 10.0 mi North 8.1 mph - N/A   Clear
3:15 PM 72.5 °F 29.1 °F 20% 29.85 in 10.0 mi Calm Calm - N/A   Clear
3:35 PM 72.7 °F 28.9 °F 20% 29.85 in 10.0 mi Calm Calm - N/A   Clear
3:55 PM 73.2 °F 30.2 °F 20% 29.84 in 10.0 mi NNE 5.8 mph - N/A   Clear
4:15 PM 73.6 °F 29.7 °F 20% 29.84 in 10.0 mi Calm Calm - N/A   Clear
4:35 PM 73.4 °F 29.5 °F 20% 29.83 in 10.0 mi Calm Calm - N/A   Clear
4:55 PM 73.6 °F 29.5 °F 20% 29.83 in 7.0 mi East 5.8 mph - N/A   Clear
5:15 PM 73.2 °F 28.6 °F 19% 29.84 in 7.0 mi North 3.5 mph - N/A   Clear
5:35 PM 73.0 °F 28.0 °F 19% 29.83 in 10.0 mi SE 3.5 mph - N/A   Clear
5:55 PM 72.7 °F 27.5 °F 19% 29.83 in 10.0 mi Calm Calm - N/A   Clear
6:15 PM 72.5 °F 28.2 °F 19% 29.83 in 10.0 mi Calm Calm - N/A   Clear
6:35 PM 71.6 °F 29.7 °F 21% 29.84 in 10.0 mi Calm Calm - N/A   Clear
6:55 PM 69.4 °F 32.7 °F 26% 29.84 in 10.0 mi Calm Calm - N/A   Clear
7:15 PM 64.8 °F 33.3 °F 31% 29.84 in 10.0 mi South 3.5 mph - N/A   Clear
7:35 PM 59.2 °F 35.4 °F 41% 29.84 in 10.0 mi SSE 6.9 mph - N/A   Clear
7:55 PM 51.3 °F 35.6 °F 55% 29.84 in 10.0 mi South 3.5 mph - N/A   Clear
8:15 PM 50.2 °F 35.1 °F 56% 29.84 in 10.0 mi South 3.5 mph - N/A   Clear
8:35 PM 52.5 °F 35.4 °F 52% 29.85 in 10.0 mi SW 3.5 mph - N/A   Clear
8:55 PM 53.2 °F 34.0 °F 48% 29.85 in 10.0 mi Calm Calm - N/A   Clear
9:15 PM 50.0 °F 35.8 °F 58% 29.84 in 10.0 mi Calm Calm - N/A   Clear
9:35 PM 49.3 °F 36.1 °F 61% 29.84 in 10.0 mi SW 3.5 mph - N/A   Clear
9:55 PM 47.5 °F 36.7 °F 66% 29.84 in 10.0 mi Calm Calm - N/A   Clear
10:15 PM 47.3 °F 37.6 °F 69% 29.84 in 10.0 mi Calm Calm - N/A   Clear
10:35 PM 52.5 °F 34.5 °F 50% 29.83 in 10.0 mi SSE 5.8 mph - N/A   Clear
10:55 PM 58.3 °F 33.6 °F 39% 29.83 in 10.0 mi SSE 9.2 mph - N/A   Clear
11:15 PM 58.6 °F 33.4 °F 39% 29.82 in 10.0 mi SSE 6.9 mph - N/A   Clear
11:35 PM 57.9 °F 34.2 °F 41% 29.81 in 10.0 mi SSE 11.5 mph - N/A   Clear
11:55 PM 58.1 °F 34.2 °F 41% 29.81 in 10.0 mi South 10.4 mph - N/A   Clear